Year,Month,Day,Hour,Minute,Value (Times are PST for temperature in C)
2012,08,17,00,00,20.60
2012,08,17,00,01,20.60
2012,08,17,00,02,20.60
2012,08,17,00,03,20.70
2012,08,17,00,04,20.60
2012,08,17,00,05,20.60
2012,08,17,00,06,20.60
2012,08,17,00,07,20.60
2012,08,17,00,08,20.60
2012,08,17,00,09,20.60
2012,08,17,00,10,20.60
2012,08,17,00,11,20.60
2012,08,17,00,12,20.60
2012,08,17,00,13,20.50
2012,08,17,00,14,20.50
2012,08,17,00,15,20.40
2012,08,17,00,16,20.40
2012,08,17,00,17,20.40
2012,08,17,00,18,20.40
2012,08,17,00,19,20.30
2012,08,17,00,20,20.30
2012,08,17,00,21,20.30
2012,08,17,00,22,20.30
2012,08,17,00,23,20.40
2012,08,17,00,24,20.40
2012,08,17,00,25,20.40
2012,08,17,00,26,20.50
2012,08,17,00,27,20.60
2012,08,17,00,28,20.60
2012,08,17,00,29,20.60
2012,08,17,00,30,20.60
2012,08,17,00,31,20.60
2012,08,17,00,32,20.70
2012,08,17,00,33,20.70
2012,08,17,00,34,20.70
2012,08,17,00,35,20.70
2012,08,17,00,36,20.70
2012,08,17,00,37,20.70
2012,08,17,00,38,20.70
2012,08,17,00,39,20.70
2012,08,17,00,40,20.70
2012,08,17,00,41,20.70
2012,08,17,00,42,20.70
2012,08,17,00,43,20.70
2012,08,17,00,44,20.80
2012,08,17,00,45,20.80
2012,08,17,00,46,20.80
2012,08,17,00,47,20.80
2012,08,17,00,48,20.80
2012,08,17,00,49,20.80
2012,08,17,00,50,20.80
2012,08,17,00,51,20.70
2012,08,17,00,52,20.70
2012,08,17,00,53,20.70
2012,08,17,00,54,20.70
2012,08,17,00,55,20.70
2012,08,17,00,56,20.70
2012,08,17,00,57,20.70
2012,08,17,00,58,20.70
2012,08,17,00,59,20.70
2012,08,17,01,00,20.60
2012,08,17,01,01,20.60
2012,08,17,01,02,20.60
2012,08,17,01,03,20.60
2012,08,17,01,04,20.60
2012,08,17,01,05,20.60
2012,08,17,01,06,20.60
2012,08,17,01,07,20.60
2012,08,17,01,08,20.60
2012,08,17,01,09,20.60
2012,08,17,01,10,20.60
2012,08,17,01,11,20.50
2012,08,17,01,12,20.50
2012,08,17,01,13,20.40
2012,08,17,01,14,20.40
2012,08,17,01,15,20.40
2012,08,17,01,16,20.30
2012,08,17,01,17,20.30
2012,08,17,01,18,20.30
2012,08,17,01,19,20.30
2012,08,17,01,20,20.20
2012,08,17,01,21,20.20
2012,08,17,01,22,20.20
2012,08,17,01,23,20.10
2012,08,17,01,24,20.10
2012,08,17,01,25,20.10
2012,08,17,01,26,20.00
2012,08,17,01,27,20.00
2012,08,17,01,28,20.00
2012,08,17,01,29,20.00
2012,08,17,01,30,19.90
2012,08,17,01,31,19.90
2012,08,17,01,32,19.90
2012,08,17,01,33,19.90
2012,08,17,01,34,19.90
2012,08,17,01,35,19.80
2012,08,17,01,36,19.80
2012,08,17,01,37,19.80
2012,08,17,01,38,19.80
2012,08,17,01,39,19.80
2012,08,17,01,40,19.80
2012,08,17,01,41,19.80
2012,08,17,01,42,19.80
2012,08,17,01,43,19.80
2012,08,17,01,44,19.80
2012,08,17,01,45,19.80
2012,08,17,01,46,19.80
2012,08,17,01,47,19.80
2012,08,17,01,48,19.80
2012,08,17,01,49,19.80
2012,08,17,01,50,19.80
2012,08,17,01,51,19.70
2012,08,17,01,52,19.70
2012,08,17,01,53,19.70
2012,08,17,01,54,19.70
2012,08,17,01,55,19.70
2012,08,17,01,56,19.70
2012,08,17,01,57,19.60
2012,08,17,01,58,19.60
2012,08,17,01,59,19.60
2012,08,17,02,00,19.60
2012,08,17,02,01,19.50
2012,08,17,02,02,19.50
2012,08,17,02,03,19.40
2012,08,17,02,04,19.40
2012,08,17,02,05,19.40
2012,08,17,02,06,19.30
2012,08,17,02,07,19.30
2012,08,17,02,08,19.30
2012,08,17,02,09,19.20
2012,08,17,02,10,19.10
2012,08,17,02,11,19.10
2012,08,17,02,12,19.10
2012,08,17,02,13,19.10
2012,08,17,02,14,19.00
2012,08,17,02,15,19.00
2012,08,17,02,16,18.90
2012,08,17,02,17,18.90
2012,08,17,02,18,18.90
2012,08,17,02,19,18.90
2012,08,17,02,20,19.00
2012,08,17,02,21,19.00
2012,08,17,02,22,19.10
2012,08,17,02,23,19.10
2012,08,17,02,24,19.10
2012,08,17,02,25,19.20
2012,08,17,02,26,19.20
2012,08,17,02,27,19.20
2012,08,17,02,28,19.10
2012,08,17,02,29,19.10
2012,08,17,02,30,19.10
2012,08,17,02,31,19.10
2012,08,17,02,32,19.10
2012,08,17,02,33,19.10
2012,08,17,02,34,19.10
2012,08,17,02,35,19.10
2012,08,17,02,36,19.10
2012,08,17,02,37,19.10
2012,08,17,02,38,19.10
2012,08,17,02,39,19.10
2012,08,17,02,40,19.20
2012,08,17,02,41,19.20
2012,08,17,02,42,19.20
2012,08,17,02,43,19.20
2012,08,17,02,44,19.20
2012,08,17,02,45,19.20
2012,08,17,02,46,19.20
2012,08,17,02,47,19.20
2012,08,17,02,48,19.20
2012,08,17,02,49,19.20
2012,08,17,02,50,19.20
2012,08,17,02,51,19.20
2012,08,17,02,52,19.20
2012,08,17,02,53,19.20
2012,08,17,02,54,19.20
2012,08,17,02,55,19.20
2012,08,17,02,56,19.20
2012,08,17,02,57,19.20
2012,08,17,02,58,19.20
2012,08,17,02,59,19.20
2012,08,17,03,00,19.30
2012,08,17,03,01,19.30
2012,08,17,03,02,19.30
2012,08,17,03,03,19.30
2012,08,17,03,06,19.40
2012,08,17,03,07,19.50
2012,08,17,03,08,19.50
2012,08,17,03,09,19.50
2012,08,17,03,10,19.60
2012,08,17,03,11,19.60
2012,08,17,03,12,19.60
2012,08,17,03,13,19.60
2012,08,17,03,14,19.60
2012,08,17,03,15,19.60
2012,08,17,03,16,19.70
2012,08,17,03,17,19.70
2012,08,17,03,18,19.70
2012,08,17,03,19,19.70
2012,08,17,03,20,19.80
2012,08,17,03,21,19.80
2012,08,17,03,22,19.80
2012,08,17,03,23,19.80
2012,08,17,03,24,19.80
2012,08,17,03,25,19.80
2012,08,17,03,26,19.80
2012,08,17,03,27,19.80
2012,08,17,03,28,19.80
2012,08,17,03,29,19.80
2012,08,17,03,30,19.80
2012,08,17,03,31,19.80
2012,08,17,03,32,19.70
2012,08,17,03,33,19.70
2012,08,17,03,34,19.70
2012,08,17,03,35,19.70
2012,08,17,03,36,19.70
2012,08,17,03,37,19.70
2012,08,17,03,38,19.70
2012,08,17,03,39,19.70
2012,08,17,03,40,19.70
2012,08,17,03,41,19.70
2012,08,17,03,42,19.70
2012,08,17,03,43,19.60
2012,08,17,03,44,19.60
2012,08,17,03,45,19.60
2012,08,17,03,46,19.60
2012,08,17,03,47,19.60
2012,08,17,03,48,19.50
2012,08,17,03,49,19.50
2012,08,17,03,50,19.40
2012,08,17,03,51,19.40
2012,08,17,03,52,19.40
2012,08,17,03,53,19.30
2012,08,17,03,54,19.30
2012,08,17,03,55,19.30
2012,08,17,03,56,19.30
2012,08,17,03,57,19.30
2012,08,17,03,58,19.30
2012,08,17,03,59,19.20
2012,08,17,04,00,19.20
2012,08,17,04,01,19.20
2012,08,17,04,02,19.20
2012,08,17,04,03,19.30
2012,08,17,04,04,19.30
2012,08,17,04,05,19.30
2012,08,17,04,06,19.30
2012,08,17,04,07,19.30
2012,08,17,04,08,19.30
2012,08,17,04,09,19.30
2012,08,17,04,10,19.30
2012,08,17,04,11,19.30
2012,08,17,04,12,19.30
2012,08,17,04,13,19.30
2012,08,17,04,14,19.30
2012,08,17,04,15,19.30
2012,08,17,04,16,19.30
2012,08,17,04,17,19.30
2012,08,17,04,18,19.30
2012,08,17,04,19,19.30
2012,08,17,04,20,19.30
2012,08,17,04,21,19.30
2012,08,17,04,22,19.30
2012,08,17,04,23,19.30
2012,08,17,04,24,19.30
2012,08,17,04,25,19.30
2012,08,17,04,26,19.30
2012,08,17,04,27,19.30
2012,08,17,04,28,19.30
2012,08,17,04,29,19.30
2012,08,17,04,30,19.30
2012,08,17,04,31,19.30
2012,08,17,04,32,19.30
2012,08,17,04,33,19.40
2012,08,17,04,34,19.40
2012,08,17,04,35,19.50
2012,08,17,04,36,19.50
2012,08,17,04,37,19.60
2012,08,17,04,38,19.60
2012,08,17,04,39,19.50
2012,08,17,04,40,19.60
2012,08,17,04,41,19.50
2012,08,17,04,42,19.60
2012,08,17,04,43,19.60
2012,08,17,04,44,19.60
2012,08,17,04,45,19.60
2012,08,17,04,46,19.60
2012,08,17,04,47,19.60
2012,08,17,04,48,19.60
2012,08,17,04,49,19.60
2012,08,17,04,50,19.60
2012,08,17,04,51,19.60
2012,08,17,04,52,19.60
2012,08,17,04,53,19.70
2012,08,17,04,54,19.70
2012,08,17,04,55,19.70
2012,08,17,04,56,19.70
2012,08,17,04,57,19.70
2012,08,17,04,58,19.70
2012,08,17,04,59,19.70
2012,08,17,05,00,19.70
2012,08,17,05,01,19.70
2012,08,17,05,02,19.70
2012,08,17,05,03,19.70
2012,08,17,05,04,19.70
2012,08,17,05,05,19.70
2012,08,17,05,06,19.70
2012,08,17,05,07,19.70
2012,08,17,05,08,19.70
2012,08,17,05,09,19.70
2012,08,17,05,10,19.70
2012,08,17,05,11,19.60
2012,08,17,05,12,19.60
2012,08,17,05,13,19.60
2012,08,17,05,14,19.50
2012,08,17,05,15,19.50
2012,08,17,05,16,19.50
2012,08,17,05,17,19.40
2012,08,17,05,18,19.40
2012,08,17,05,19,19.40
2012,08,17,05,20,19.30
2012,08,17,05,21,19.30
2012,08,17,05,22,19.30
2012,08,17,05,23,19.30
2012,08,17,05,24,19.20
2012,08,17,05,25,19.20
2012,08,17,05,26,19.20
2012,08,17,05,27,19.10
2012,08,17,05,28,19.10
2012,08,17,05,29,19.10
2012,08,17,05,30,19.00
2012,08,17,05,31,19.00
2012,08,17,05,32,19.00
2012,08,17,05,33,18.90
2012,08,17,05,34,18.90
2012,08,17,05,35,18.90
2012,08,17,05,36,18.90
2012,08,17,05,37,18.90
2012,08,17,05,38,18.90
2012,08,17,05,39,18.90
2012,08,17,05,40,19.00
2012,08,17,05,41,19.00
2012,08,17,05,42,19.00
2012,08,17,05,43,19.10
2012,08,17,05,44,19.10
2012,08,17,05,45,19.10
2012,08,17,05,46,19.10
2012,08,17,05,47,19.10
2012,08,17,05,48,19.10
2012,08,17,05,49,19.10
2012,08,17,05,50,19.10
2012,08,17,05,51,19.10
2012,08,17,05,52,19.10
2012,08,17,05,53,19.10
2012,08,17,05,54,19.00
2012,08,17,05,55,19.00
2012,08,17,05,56,19.00
2012,08,17,05,57,19.00
2012,08,17,05,58,19.00
2012,08,17,05,59,19.00
2012,08,17,06,00,18.90
2012,08,17,06,01,18.90
2012,08,17,06,02,18.90
2012,08,17,06,03,18.80
2012,08,17,06,04,18.80
2012,08,17,06,05,18.80
2012,08,17,06,06,18.70
2012,08,17,06,07,18.70
2012,08,17,06,08,18.70
2012,08,17,06,09,18.70
2012,08,17,06,10,18.70
2012,08,17,06,11,18.70
2012,08,17,06,12,18.70
2012,08,17,06,13,18.70
2012,08,17,06,14,18.70
2012,08,17,06,15,18.70
2012,08,17,06,16,18.70
2012,08,17,06,17,18.70
2012,08,17,06,18,18.70
2012,08,17,06,19,18.70
2012,08,17,06,20,18.70
2012,08,17,06,21,18.70
2012,08,17,06,22,18.70
2012,08,17,06,23,18.70
2012,08,17,06,24,18.70
2012,08,17,06,25,18.70
2012,08,17,06,26,18.70
2012,08,17,06,27,18.70
2012,08,17,06,28,18.70
2012,08,17,06,29,18.70
2012,08,17,06,30,18.70
2012,08,17,06,31,18.70
2012,08,17,06,32,18.70
2012,08,17,06,33,18.70
2012,08,17,06,34,18.70
2012,08,17,06,35,18.80
2012,08,17,06,36,18.80
2012,08,17,06,37,18.80
2012,08,17,06,38,18.80
2012,08,17,06,39,18.80
2012,08,17,06,40,18.90
2012,08,17,06,41,18.90
2012,08,17,06,42,18.90
2012,08,17,06,43,18.90
2012,08,17,06,44,18.90
2012,08,17,06,45,18.90
2012,08,17,06,46,18.90
2012,08,17,06,47,18.90
2012,08,17,06,48,18.90
2012,08,17,06,49,19.00
2012,08,17,06,50,19.00
2012,08,17,06,51,19.10
2012,08,17,06,52,19.10
2012,08,17,06,53,19.10
2012,08,17,06,54,19.10
2012,08,17,06,55,19.10
2012,08,17,06,56,19.10
2012,08,17,06,57,19.20
2012,08,17,06,58,19.20
2012,08,17,06,59,19.20
2012,08,17,07,00,19.20
2012,08,17,07,01,19.20
2012,08,17,07,02,19.20
2012,08,17,07,03,19.30
2012,08,17,07,04,19.30
2012,08,17,07,05,19.30
2012,08,17,07,06,19.30
2012,08,17,07,07,19.30
2012,08,17,07,08,19.30
2012,08,17,07,09,19.30
2012,08,17,07,10,19.30
2012,08,17,07,11,19.30
2012,08,17,07,12,19.30
2012,08,17,07,13,19.40
2012,08,17,07,14,19.40
2012,08,17,07,15,19.40
2012,08,17,07,16,19.40
2012,08,17,07,17,19.40
2012,08,17,07,18,19.50
2012,08,17,07,19,19.50
2012,08,17,07,20,19.50
2012,08,17,07,21,19.60
2012,08,17,07,22,19.60
2012,08,17,07,23,19.60
2012,08,17,07,24,19.60
2012,08,17,07,25,19.60
2012,08,17,07,26,19.70
2012,08,17,07,27,19.70
2012,08,17,07,28,19.70
2012,08,17,07,29,19.70
2012,08,17,07,30,19.70
2012,08,17,07,31,19.70
2012,08,17,07,32,19.80
2012,08,17,07,33,19.80
2012,08,17,07,34,19.80
2012,08,17,07,35,19.80
2012,08,17,07,36,19.90
2012,08,17,07,37,19.90
2012,08,17,07,38,19.90
2012,08,17,07,39,20.00
2012,08,17,07,40,20.00
2012,08,17,07,41,20.10
2012,08,17,07,42,20.10
2012,08,17,07,43,20.10
2012,08,17,07,44,20.20
2012,08,17,07,45,20.20
2012,08,17,07,46,20.20
2012,08,17,07,47,20.30
2012,08,17,07,48,20.30
2012,08,17,07,49,20.40
2012,08,17,07,50,20.40
2012,08,17,07,51,20.50
2012,08,17,07,52,20.60
2012,08,17,07,53,20.60
2012,08,17,07,54,20.60
2012,08,17,07,55,20.70
2012,08,17,07,56,20.80
2012,08,17,07,57,20.80
2012,08,17,07,58,20.90
2012,08,17,07,59,21.00
2012,08,17,08,00,21.10
2012,08,17,08,01,21.10
2012,08,17,08,02,21.20
2012,08,17,08,03,21.30
2012,08,17,08,04,21.30
2012,08,17,08,05,21.40
2012,08,17,08,06,21.40
2012,08,17,08,07,21.50
2012,08,17,08,08,21.50
2012,08,17,08,09,21.60
2012,08,17,08,10,21.60
2012,08,17,08,11,21.70
2012,08,17,08,12,21.70
2012,08,17,08,13,21.70
2012,08,17,08,14,21.80
2012,08,17,08,15,21.80
2012,08,17,08,16,21.80
2012,08,17,08,17,21.90
2012,08,17,08,18,21.90
2012,08,17,08,19,21.90
2012,08,17,08,20,21.90
2012,08,17,08,21,22.00
2012,08,17,08,22,22.00
2012,08,17,08,23,22.10
2012,08,17,08,24,22.10
2012,08,17,08,25,22.20
2012,08,17,08,26,22.20
2012,08,17,08,27,22.20
2012,08,17,08,28,22.20
2012,08,17,08,29,22.30
2012,08,17,08,30,22.30
2012,08,17,08,31,22.40
2012,08,17,08,32,22.40
2012,08,17,08,33,22.50
2012,08,17,08,34,22.60
2012,08,17,08,35,22.60
2012,08,17,08,36,22.60
2012,08,17,08,37,22.70
2012,08,17,08,38,22.70
2012,08,17,08,39,22.70
2012,08,17,08,40,22.70
2012,08,17,08,41,22.70
2012,08,17,08,42,22.70
2012,08,17,08,43,22.70
2012,08,17,08,44,22.70
2012,08,17,08,45,22.70
2012,08,17,08,46,22.70
2012,08,17,08,47,22.70
2012,08,17,08,48,22.70
2012,08,17,08,49,22.70
2012,08,17,08,50,22.70
2012,08,17,08,51,22.70
2012,08,17,08,52,22.70
2012,08,17,08,53,22.70
2012,08,17,08,54,22.70
2012,08,17,08,55,22.70
2012,08,17,08,56,22.70
2012,08,17,08,57,22.70
2012,08,17,08,58,22.70
2012,08,17,08,59,22.80
2012,08,17,09,00,22.80
2012,08,17,09,01,22.80
2012,08,17,09,02,22.80
2012,08,17,09,03,22.80
2012,08,17,09,04,22.90
2012,08,17,09,05,22.90
2012,08,17,09,06,22.90
2012,08,17,09,07,23.00
2012,08,17,09,08,23.00
2012,08,17,09,09,23.10
2012,08,17,09,10,23.10
2012,08,17,09,11,23.10
2012,08,17,09,12,23.10
2012,08,17,09,13,23.10
2012,08,17,09,14,23.10
2012,08,17,09,15,23.10
2012,08,17,09,16,23.10
2012,08,17,09,17,23.10
2012,08,17,09,18,23.10
2012,08,17,09,19,23.10
2012,08,17,09,20,23.00
2012,08,17,09,21,23.00
2012,08,17,09,22,23.00
2012,08,17,09,23,23.00
2012,08,17,09,24,23.00
2012,08,17,09,25,23.10
2012,08,17,09,26,23.10
2012,08,17,09,27,23.10
2012,08,17,09,28,23.10
2012,08,17,09,29,23.10
2012,08,17,09,30,23.10
2012,08,17,09,31,23.10
2012,08,17,09,32,23.00
2012,08,17,09,33,23.00
2012,08,17,09,34,23.00
2012,08,17,09,35,23.00
2012,08,17,09,36,23.00
2012,08,17,09,37,23.10
2012,08,17,09,38,23.10
2012,08,17,09,39,23.20
2012,08,17,09,40,23.20
2012,08,17,09,41,23.20
2012,08,17,09,42,23.30
2012,08,17,09,43,23.30
2012,08,17,09,44,23.30
2012,08,17,09,45,23.30
2012,08,17,09,46,23.30
2012,08,17,09,47,23.20
2012,08,17,09,48,23.30
2012,08,17,09,49,23.30
2012,08,17,09,50,23.30
2012,08,17,09,51,23.30
2012,08,17,09,52,23.30
2012,08,17,09,53,23.30
2012,08,17,09,54,23.30
2012,08,17,09,55,23.30
2012,08,17,09,56,23.30
2012,08,17,09,57,23.30
2012,08,17,09,58,23.30
2012,08,17,09,59,23.30
2012,08,17,10,00,23.30
2012,08,17,10,01,23.30
2012,08,17,10,02,23.30
2012,08,17,10,03,23.30
2012,08,17,10,04,23.30
2012,08,17,10,05,23.30
2012,08,17,10,06,23.40
2012,08,17,10,07,23.40
2012,08,17,10,08,23.40
2012,08,17,10,09,23.40
2012,08,17,10,10,23.40
2012,08,17,10,11,23.40
2012,08,17,10,12,23.40
2012,08,17,10,13,23.40
2012,08,17,10,14,23.30
2012,08,17,10,15,23.30
2012,08,17,10,16,23.30
2012,08,17,10,17,23.20
2012,08,17,10,18,23.30
2012,08,17,10,19,23.30
2012,08,17,10,20,23.30
2012,08,17,10,21,23.30
2012,08,17,10,22,23.30
2012,08,17,10,23,23.30
2012,08,17,10,24,23.30
2012,08,17,10,25,23.30
2012,08,17,10,26,23.30
2012,08,17,10,27,23.30
2012,08,17,10,28,23.30
2012,08,17,10,29,23.30
2012,08,17,10,30,23.30
2012,08,17,10,31,23.30
2012,08,17,10,32,23.30
2012,08,17,10,33,23.30
2012,08,17,10,34,23.30
2012,08,17,10,35,23.30
2012,08,17,10,36,23.30
2012,08,17,10,37,23.40
2012,08,17,10,38,23.40
2012,08,17,10,39,23.50
2012,08,17,10,40,23.50
2012,08,17,10,41,23.50
2012,08,17,10,42,23.40
2012,08,17,10,43,23.40
2012,08,17,10,44,23.40
2012,08,17,10,45,23.40
2012,08,17,10,46,23.40
2012,08,17,10,47,23.40
2012,08,17,10,48,23.40
2012,08,17,10,49,23.50
2012,08,17,10,50,23.50
2012,08,17,10,51,23.50
2012,08,17,10,52,23.60
2012,08,17,10,53,23.60
2012,08,17,10,54,23.60
2012,08,17,10,55,23.60
2012,08,17,10,56,23.60
2012,08,17,10,57,23.60
2012,08,17,10,58,23.60
2012,08,17,10,59,23.60
2012,08,17,11,00,23.70
2012,08,17,11,01,23.70
2012,08,17,11,02,23.80
2012,08,17,11,03,23.80
2012,08,17,11,04,23.80
2012,08,17,11,05,23.80
2012,08,17,11,06,23.80
2012,08,17,11,07,23.70
2012,08,17,11,08,23.70
2012,08,17,11,09,23.60
2012,08,17,11,10,23.60
2012,08,17,11,11,23.60
2012,08,17,11,12,23.50
2012,08,17,11,13,23.50
2012,08,17,11,14,23.50
2012,08,17,11,15,23.60
2012,08,17,11,16,23.60
2012,08,17,11,17,23.60
2012,08,17,11,18,23.60
2012,08,17,11,19,23.60
2012,08,17,11,20,23.60
2012,08,17,11,21,23.70
2012,08,17,11,22,23.70
2012,08,17,11,23,23.70
2012,08,17,11,24,23.70
2012,08,17,11,25,23.70
2012,08,17,11,26,23.70
2012,08,17,11,27,23.70
2012,08,17,11,28,23.70
2012,08,17,11,29,23.70
2012,08,17,11,30,23.70
2012,08,17,11,31,23.70
2012,08,17,11,32,23.70
2012,08,17,11,33,23.70
2012,08,17,11,34,23.70
2012,08,17,11,35,23.70
2012,08,17,11,36,23.70
2012,08,17,11,37,23.80
2012,08,17,11,38,23.80
2012,08,17,11,39,23.80
2012,08,17,11,40,23.80
2012,08,17,11,41,23.90
2012,08,17,11,42,23.90
2012,08,17,11,43,23.90
2012,08,17,11,44,24.00
2012,08,17,11,45,24.10
2012,08,17,11,46,24.10
2012,08,17,11,47,24.10
2012,08,17,11,48,24.10
2012,08,17,11,49,24.10
2012,08,17,11,50,24.10
2012,08,17,11,51,24.10
2012,08,17,11,52,24.10
2012,08,17,11,53,24.10
2012,08,17,11,54,24.20
2012,08,17,11,55,24.20
2012,08,17,11,56,24.10
2012,08,17,11,57,24.10
2012,08,17,11,58,24.10
2012,08,17,11,59,24.00
2012,08,17,12,00,24.00
2012,08,17,12,01,24.10
2012,08,17,12,02,24.10
2012,08,17,12,03,24.10
2012,08,17,12,04,24.10
2012,08,17,12,05,24.10
2012,08,17,12,06,24.10
2012,08,17,12,07,24.00
2012,08,17,12,08,24.00
2012,08,17,12,09,24.00
2012,08,17,12,10,23.90
2012,08,17,12,11,23.90
2012,08,17,12,12,23.90
2012,08,17,12,13,23.90
2012,08,17,12,14,23.90
2012,08,17,12,15,23.90
2012,08,17,12,16,23.90
2012,08,17,12,17,23.90
2012,08,17,12,18,23.90
2012,08,17,12,19,23.90
2012,08,17,12,20,23.90
2012,08,17,12,21,23.90
2012,08,17,12,22,23.80
2012,08,17,12,23,23.80
2012,08,17,12,24,23.80
2012,08,17,12,25,23.70
2012,08,17,12,26,23.70
2012,08,17,12,27,23.60
2012,08,17,12,28,23.60
2012,08,17,12,29,23.60
2012,08,17,12,30,23.60
2012,08,17,12,31,23.60
2012,08,17,12,32,23.60
2012,08,17,12,33,23.60
2012,08,17,12,34,23.60
2012,08,17,12,35,23.60
2012,08,17,12,36,23.70
2012,08,17,12,37,23.70
2012,08,17,12,38,23.70
2012,08,17,12,39,23.60
2012,08,17,12,40,23.60
2012,08,17,12,41,23.50
2012,08,17,12,42,23.50
2012,08,17,12,43,23.50
2012,08,17,12,44,23.60
2012,08,17,12,45,23.60
2012,08,17,12,46,23.60
2012,08,17,12,47,23.70
2012,08,17,12,48,23.80
2012,08,17,12,49,23.80
2012,08,17,12,50,23.80
2012,08,17,12,51,23.80
2012,08,17,12,52,23.70
2012,08,17,12,53,23.80
2012,08,17,12,54,23.80
2012,08,17,12,55,23.90
2012,08,17,12,56,23.90
2012,08,17,12,57,23.90
2012,08,17,12,58,24.00
2012,08,17,12,59,24.00
2012,08,17,13,00,24.10
2012,08,17,13,01,24.10
2012,08,17,13,02,24.10
2012,08,17,13,03,24.10
2012,08,17,13,04,24.10
2012,08,17,13,05,24.10
2012,08,17,13,06,24.20
2012,08,17,13,07,24.10
2012,08,17,13,08,24.10
2012,08,17,13,09,24.10
2012,08,17,13,10,24.10
2012,08,17,13,11,24.10
2012,08,17,13,12,24.10
2012,08,17,13,13,24.10
2012,08,17,13,14,24.20
2012,08,17,13,15,24.20
2012,08,17,13,16,24.30
2012,08,17,13,17,24.30
2012,08,17,13,18,24.40
2012,08,17,13,19,24.40
2012,08,17,13,20,24.50
2012,08,17,13,21,24.50
2012,08,17,13,22,24.60
2012,08,17,13,23,24.60
2012,08,17,13,24,24.70
2012,08,17,13,25,24.70
2012,08,17,13,26,24.70
2012,08,17,13,27,24.70
2012,08,17,13,28,24.70
2012,08,17,13,29,24.70
2012,08,17,13,30,24.70
2012,08,17,13,31,24.70
2012,08,17,13,32,24.70
2012,08,17,13,33,24.60
2012,08,17,13,34,24.60
2012,08,17,13,35,24.60
2012,08,17,13,36,24.60
2012,08,17,13,37,24.60
2012,08,17,13,38,24.70
2012,08,17,13,39,24.70
2012,08,17,13,40,24.70
2012,08,17,13,41,24.70
2012,08,17,13,42,24.70
2012,08,17,13,43,24.80
2012,08,17,13,44,24.70
2012,08,17,13,45,24.70
2012,08,17,13,46,24.70
2012,08,17,13,47,24.60
2012,08,17,13,48,24.60
2012,08,17,13,49,24.50
2012,08,17,13,50,24.50
2012,08,17,13,51,24.50
2012,08,17,13,52,24.50
2012,08,17,13,53,24.50
2012,08,17,13,54,24.50
2012,08,17,13,55,24.50
2012,08,17,13,56,24.60
2012,08,17,13,57,24.70
2012,08,17,13,58,24.70
2012,08,17,13,59,24.80
2012,08,17,14,00,24.80
2012,08,17,14,01,24.80
2012,08,17,14,02,24.80
2012,08,17,14,03,24.90
2012,08,17,14,04,24.90
2012,08,17,14,05,24.90
2012,08,17,14,06,25.00
2012,08,17,14,07,25.00
2012,08,17,14,08,25.10
2012,08,17,14,09,25.10
2012,08,17,14,10,25.10
2012,08,17,14,11,25.10
2012,08,17,14,12,25.10
2012,08,17,14,13,25.20
2012,08,17,14,14,25.30
2012,08,17,14,15,25.40
2012,08,17,14,16,25.50
2012,08,17,14,17,25.60
2012,08,17,14,18,25.70
2012,08,17,14,19,25.70
2012,08,17,14,20,25.70
2012,08,17,14,21,25.70
2012,08,17,14,22,25.70
2012,08,17,14,23,25.80
2012,08,17,14,24,25.80
2012,08,17,14,25,25.90
2012,08,17,14,26,25.90
2012,08,17,14,27,26.00
2012,08,17,14,28,26.10
2012,08,17,14,29,26.20
2012,08,17,14,30,26.30
2012,08,17,14,31,26.30
2012,08,17,14,32,26.30
2012,08,17,14,33,26.40
2012,08,17,14,34,26.50
2012,08,17,14,35,26.60
2012,08,17,14,36,26.70
2012,08,17,14,37,26.70
2012,08,17,14,38,26.80
2012,08,17,14,39,26.90
2012,08,17,14,40,26.90
2012,08,17,14,41,27.10
2012,08,17,14,42,27.10
2012,08,17,14,43,27.20
2012,08,17,14,44,27.30
2012,08,17,14,45,27.30
2012,08,17,14,46,27.30
2012,08,17,14,47,27.40
2012,08,17,14,48,27.40
2012,08,17,14,49,27.40
2012,08,17,14,50,27.40
2012,08,17,14,51,27.40
2012,08,17,14,52,27.40
2012,08,17,14,53,27.30
2012,08,17,14,54,27.20
2012,08,17,14,55,27.10
2012,08,17,14,56,27.00
2012,08,17,14,57,27.00
2012,08,17,14,58,27.00
2012,08,17,14,59,26.90
2012,08,17,15,00,26.90
2012,08,17,15,01,26.90
2012,08,17,15,02,26.80
2012,08,17,15,03,26.80
2012,08,17,15,04,26.70
2012,08,17,15,05,26.70
2012,08,17,15,06,26.60
2012,08,17,15,07,26.70
2012,08,17,15,08,26.70
2012,08,17,15,09,26.70
2012,08,17,15,10,26.70
2012,08,17,15,11,26.80
2012,08,17,15,12,26.90
2012,08,17,15,13,26.90
2012,08,17,15,14,26.80
2012,08,17,15,15,26.90
2012,08,17,15,16,26.90
2012,08,17,15,17,26.90
2012,08,17,15,18,26.90
2012,08,17,15,19,27.00
2012,08,17,15,20,27.00
2012,08,17,15,21,27.10
2012,08,17,15,22,27.10
2012,08,17,15,23,27.10
2012,08,17,15,24,27.20
2012,08,17,15,25,27.20
2012,08,17,15,26,27.30
2012,08,17,15,27,27.40
2012,08,17,15,28,27.50
2012,08,17,15,29,27.50
2012,08,17,15,30,27.60
2012,08,17,15,31,27.60
2012,08,17,15,32,27.70
2012,08,17,15,33,27.70
2012,08,17,15,34,27.70
2012,08,17,15,35,27.60
2012,08,17,15,36,27.50
2012,08,17,15,37,27.30
2012,08,17,15,38,27.10
2012,08,17,15,39,26.80
2012,08,17,15,40,26.50
2012,08,17,15,41,26.30
2012,08,17,15,42,26.10
2012,08,17,15,43,25.90
2012,08,17,15,44,25.70
2012,08,17,15,45,25.60
2012,08,17,15,46,25.60
2012,08,17,15,47,25.50
2012,08,17,15,48,25.50
2012,08,17,15,49,25.40
2012,08,17,15,50,25.30
2012,08,17,15,51,25.30
2012,08,17,15,52,25.30
2012,08,17,15,53,25.30
2012,08,17,15,54,25.30
2012,08,17,15,55,25.40
2012,08,17,15,56,25.50
2012,08,17,15,57,25.60
2012,08,17,15,58,25.60
2012,08,17,15,59,25.70
2012,08,17,16,00,25.70
2012,08,17,16,01,25.60
2012,08,17,16,02,25.60
2012,08,17,16,03,25.60
2012,08,17,16,04,25.70
2012,08,17,16,05,25.70
2012,08,17,16,06,25.70
2012,08,17,16,07,25.70
2012,08,17,16,08,25.70
2012,08,17,16,09,25.70
2012,08,17,16,10,25.80
2012,08,17,16,11,25.80
2012,08,17,16,12,25.90
2012,08,17,16,13,26.00
2012,08,17,16,14,26.00
2012,08,17,16,15,26.10
2012,08,17,16,16,26.10
2012,08,17,16,17,26.20
2012,08,17,16,18,26.20
2012,08,17,16,19,26.30
2012,08,17,16,20,26.30
2012,08,17,16,21,26.40
2012,08,17,16,22,26.50
2012,08,17,16,23,26.50
2012,08,17,16,24,26.60
2012,08,17,16,25,26.60
2012,08,17,16,26,26.50
2012,08,17,16,27,26.40
2012,08,17,16,28,26.30
2012,08,17,16,29,26.10
2012,08,17,16,30,25.90
2012,08,17,16,31,25.80
2012,08,17,16,32,25.60
2012,08,17,16,33,25.60
2012,08,17,16,34,25.50
2012,08,17,16,35,25.50
2012,08,17,16,36,25.60
2012,08,17,16,37,25.60
2012,08,17,16,38,25.70
2012,08,17,16,39,25.70
2012,08,17,16,40,25.80
2012,08,17,16,41,25.80
2012,08,17,16,42,25.80
2012,08,17,16,43,25.80
2012,08,17,16,44,25.80
2012,08,17,16,45,25.80
2012,08,17,16,46,25.90
2012,08,17,16,47,26.00
2012,08,17,16,48,26.10
2012,08,17,16,49,26.10
2012,08,17,16,50,26.20
2012,08,17,16,51,26.20
2012,08,17,16,52,26.20
2012,08,17,16,53,26.30
2012,08,17,16,54,26.30
2012,08,17,16,55,26.30
2012,08,17,16,56,26.40
2012,08,17,16,57,26.40
2012,08,17,16,58,26.50
2012,08,17,16,59,26.40
2012,08,17,17,00,26.40
2012,08,17,17,01,26.40
2012,08,17,17,02,26.40
2012,08,17,17,03,26.40
2012,08,17,17,04,26.40
2012,08,17,17,05,26.40
2012,08,17,17,06,26.40
2012,08,17,17,07,26.40
2012,08,17,17,08,26.40
2012,08,17,17,09,26.40
2012,08,17,17,10,26.40
2012,08,17,17,11,26.40
2012,08,17,17,12,26.50
2012,08,17,17,13,26.50
2012,08,17,17,14,26.60
2012,08,17,17,15,26.60
2012,08,17,17,16,26.60
2012,08,17,17,17,26.70
2012,08,17,17,18,26.70
2012,08,17,17,19,26.70
2012,08,17,17,20,26.70
2012,08,17,17,21,26.70